Content
SEND FEEDBACK

Daily
Averages
Monthly
Summary
United States of America

DEDEDO, GUAM


Home > North America > United States > Guam
Elevation: 364 feet     Latitude: 13 33N     Longitude: 144 49E

WEATHER
 
SELECT A DAY
Number of Records: 209,165;   Date Range: 1/1/95 - 8/30/14
 
SHARE

PRINT THIS DATA

[ ← Previous Day ]
WEATHER ALMANAC - MARCH 4, 2014
[ Next Day → ]
[ °C ]   °F
Weather ElementAverageHighLow
Temperature80.3 °F82.9 °F (3:54 pm)77 °F (4:04 am)
Dewpoint73.1 °F77 °F (2:40 am)68 °F (11:54 pm)
Humidity79.2 %94 % (2:54 am)65 % (3:54 pm)
Barometer29.71 in29.77 in (9:12 am)29.64 in (4:54 am)
Wind Speed17.9 mph26.5 mph (9:54 am)
Wind Gust33.4 mph (3:54 am)
Weather ElementAverage
Visibility9.9 mi
Wind DirectionNNW (341.9 °)

Weather ElementTotal
Precipitation0.02 in
Cooling Degree Days15 (Base 65)
Growing Degree Days30 (Base 50)
Averaged from 47 records on March 4, 2014
WEATHER CONDITIONS BREAKOUT
WIND DIRECTION BREAKOUT
WEATHER BY HOUR - MARCH 4, 2014
[ °C ]   °F
Local TimeTemperatureDewpointHumidityBarometerVisibilityWind DirectionWind SpeedGust SpeedPrecipitationEventsConditions
1:54 AM80.1 °F75.9 °F87 %29.66 in10.0 miNNW (330°)17.3 mphOvercast
2:01 AM80.6 °F75.2 °F84 %29.68 in10.0 miNNW (340°)15.0 mph21.9 mphOvercast
2:26 AM78.8 °F75.2 °F89 %29.68 in10.0 miNorth (350°)12.7 mphOvercast
2:40 AM80.6 °F77.0 °F89 %29.68 in7.0 miNorth (360°)12.7 mph0.00 inRainLight Rain
2:54 AM79.0 °F77.0 °F94 %29.65 in10.0 miNNW (340°)11.5 mph0.02 inMostly Cloudy
2:57 AM78.8 °F77.0 °F94 %29.67 in10.0 miNNW (340°)13.8 mphMostly Cloudy
3:54 AM79.0 °F75.9 °F90 %29.65 in10.0 miNorth (350°)24.2 mph33.4 mphOvercast
4:04 AM77.0 °F75.2 °F94 %29.68 in6.0 miNorth (350°)16.1 mph31.1 mph0.00 inRainRain
4:22 AM78.8 °F75.2 °F89 %29.67 in10.0 miNNW (340°)13.8 mph23.0 mph0.00 inRainLight Rain
4:33 AM78.8 °F75.2 °F89 %29.66 in10.0 miNNW (340°)18.4 mph24.2 mph0.00 inMostly Cloudy
4:54 AM78.1 °F75.0 °F90 %29.64 in10.0 miNNW (340°)19.6 mph26.5 mph0.00 inMostly Cloudy
5:54 AM79.0 °F75.0 °F88 %29.66 in10.0 miNNW (340°)17.3 mph26.5 mphMostly Cloudy
6:17 AM78.8 °F75.2 °F89 %29.70 in10.0 miNNW (340°)19.6 mph26.5 mphScattered Clouds
6:28 AM78.8 °F75.2 °F89 %29.71 in10.0 miNNW (340°)18.4 mph31.1 mphMostly Cloudy
6:35 AM78.8 °F75.2 °F89 %29.71 in10.0 miNNW (340°)20.7 mph26.5 mphMostly Cloudy
6:54 AM79.0 °F75.0 °F88 %29.70 in10.0 miNNW (340°)19.6 mph28.8 mphMostly Cloudy
7:07 AM80.6 °F75.2 °F84 %29.72 in10.0 miNNW (330°)20.7 mph28.8 mphMostly Cloudy
7:41 AM80.6 °F75.2 °F84 %29.73 in10.0 miNorth (350°)18.4 mph31.1 mphMostly Cloudy
7:54 AM81.0 °F75.0 °F82 %29.71 in10.0 miNorth (350°)17.3 mph28.8 mphScattered Clouds
8:28 AM80.6 °F75.2 °F84 %29.75 in10.0 miNNW (340°)19.6 mph29.9 mphMostly Cloudy
8:54 AM81.0 °F73.9 °F79 %29.74 in10.0 miNorth (350°)19.6 mph29.9 mphMostly Cloudy
9:12 AM80.6 °F73.4 °F79 %29.77 in10.0 miNNW (340°)21.9 mph32.2 mphScattered Clouds
9:19 AM80.6 °F73.4 °F79 %29.77 in10.0 miNorth (350°)17.3 mph31.1 mphMostly Cloudy
9:54 AM82.0 °F73.0 °F74 %29.75 in10.0 miNorth (350°)26.5 mph31.1 mphMostly Cloudy
10:08 AM82.4 °F73.4 °F74 %29.77 in10.0 miNorth (350°)18.4 mph28.8 mphMostly Cloudy
10:16 AM82.4 °F73.4 °F74 %29.77 in10.0 miNorth (350°)18.4 mph28.8 mphPartly Cloudy
10:54 AM81.0 °F72.0 °F74 %29.74 in10.0 miNorth (350°)21.9 mph29.9 mphScattered Clouds
11:10 AM82.4 °F71.6 °F70 %29.76 in10.0 miNorth (350°)24.2 mph28.8 mphMostly Cloudy
11:32 AM82.4 °F71.6 °F70 %29.75 in10.0 miNorth (350°)21.9 mph29.9 mphMostly Cloudy
11:54 AM82.0 °F72.0 °F71 %29.72 in10.0 miNorth (350°)18.4 mph25.3 mphPartly Cloudy
12:54 PM82.0 °F72.0 °F71 %29.70 in10.0 miNorth (350°)15.0 mph24.2 mphMostly Cloudy
1:15 PM82.4 °F73.4 °F74 %29.72 in10.0 miNNW (340°)17.3 mphMostly Cloudy
1:27 PM82.4 °F71.6 °F70 %29.72 in10.0 miNNW (340°)16.1 mph25.3 mphMostly Cloudy
1:37 PM82.4 °F71.6 °F70 %29.72 in10.0 miNNW (340°)21.9 mph28.8 mphMostly Cloudy
1:54 PM82.0 °F72.0 °F71 %29.69 in10.0 miNNW (340°)19.6 mph25.3 mphScattered Clouds
2:35 PM82.4 °F71.6 °F70 %29.70 in10.0 miNNW (330°)17.3 mph26.5 mphMostly Cloudy
2:54 PM82.0 °F72.0 °F71 %29.68 in10.0 miNNW (340°)17.3 mph24.2 mphMostly Cloudy
3:08 PM82.4 °F71.6 °F70 %29.70 in10.0 miNNW (340°)18.4 mph25.3 mphMostly Cloudy
3:54 PM82.9 °F70.0 °F65 %29.66 in10.0 miNNW (340°)19.6 mph27.6 mphScattered Clouds
4:54 PM81.0 °F70.0 °F69 %29.68 in10.0 miNorth (350°)19.6 mph26.5 mphScattered Clouds
5:54 PM80.1 °F69.1 °F69 %29.70 in10.0 miNNW (340°)16.1 mphScattered Clouds
6:54 PM79.0 °F69.1 °F72 %29.72 in10.0 miNNW (340°)16.1 mph24.2 mphScattered Clouds
7:54 PM78.1 °F70.0 °F76 %29.72 in10.0 miNNW (330°)16.1 mph25.3 mphPartly Cloudy
8:54 PM78.1 °F69.1 °F74 %29.73 in10.0 miNNW (330°)15.0 mphPartly Cloudy
9:54 PM78.1 °F69.1 °F74 %29.74 in10.0 miNW (320°)12.7 mph20.7 mphMostly Cloudy
10:54 PM78.1 °F70.0 °F76 %29.74 in10.0 miNNW (330°)16.1 mphMostly Cloudy
11:54 PM78.1 °F68.0 °F71 %29.74 in10.0 miNNW (330°)13.8 mphPartly Cloudy
Hourly data recorded from PGUM, located miles away from Dededo, Guam







STORIES FROM OUR PARTNERS